When you browse on this site, cookies collect data to enhance your experience and personalize the content and advertising you see.
Visit our Privacy Policy to learn more. By continuing to use the site, you agree to this use of cookies and data.
  • In United Kingdom
  • List of Countries
  • For 7 days
  • Water Temperature
  • Weather Map
  • Weather Widgets
  • user-avatar
    Login

    Hourly Weather Zukow

    Today, 6 December, Friday

    Time Temperature Precipitation Wind Pressure Humidity
    00:00 -2°C° 0 mm 5 mps 750 mmHg 66%
    01:00 -2°C° 0 mm 5 mps 750 mmHg 67%
    02:00 -2°C° 0 mm 5 mps 750 mmHg 68%
    03:00 -4°C° 0 mm 5 mps 749 mmHg 68%
    04:00 -3°C° 0 mm 4 mps 748 mmHg 69%
    05:00 -3°C° 0 mm 4 mps 748 mmHg 69%
    06:00 -4°C° 0 mm 5 mps 748 mmHg 69%
    07:00 -4°C° 0 mm 5 mps 748 mmHg 68%
    08:00 -4°C° 0 mm 5 mps 748 mmHg 68%
    09:00 -2°C° 0 mm 5 mps 748 mmHg 65%
    10:00 -2°C° 0 mm 6 mps 747 mmHg 61%
    11:00 -2°C° 0 mm 6 mps 747 mmHg 58%
    12:00 -1°C° 0 mm 6 mps 747 mmHg 57%
    13:00 -1°C° 0 mm 6 mps 746 mmHg 56%
    14:00 +1°C° 0 mm 6 mps 746 mmHg 54%
    15:00 -1°C° 0 mm 6 mps 746 mmHg 57%
    16:00 -1°C° 0 mm 5 mps 745 mmHg 60%
    17:00 -2°C° 0 mm 5 mps 745 mmHg 63%
    18:00 -2°C° 0 mm 5 mps 745 mmHg 65%
    19:00 -2°C° 0 mm 5 mps 745 mmHg 67%
    20:00 -2°C° 0 mm 5 mps 745 mmHg 68%
    21:00 -2°C° 0 mm 5 mps 745 mmHg 69%
    22:00 -2°C° 0 mm 5 mps 745 mmHg 70%
    23:00 -2°C° 0 mm 5 mps 744 mmHg 71%

    Tomorrow, 7 December, Saturday

    Time Temperature Precipitation Wind Pressure Humidity
    00:00 -2°C° 0 mm 5 mps 744 mmHg 70%
    01:00 -2°C° 0 mm 5 mps 744 mmHg 70%
    02:00 -2°C° 0 mm 5 mps 744 mmHg 69%
    03:00 -2°C° 0 mm 5 mps 743 mmHg 68%
    04:00 -2°C° 0 mm 5 mps 743 mmHg 68%
    05:00 -2°C° 0 mm 5 mps 742 mmHg 67%
    06:00 -2°C° 0 mm 5 mps 742 mmHg 66%
    07:00 -2°C° 0 mm 5 mps 742 mmHg 65%
    08:00 -3°C° 0 mm 6 mps 742 mmHg 64%
    09:00 -2°C° 0 mm 6 mps 742 mmHg 62%
    10:00 -1°C° 0 mm 6 mps 741 mmHg 59%
    11:00 0°C° 0 mm 7 mps 741 mmHg 56%
    12:00 0°C° 0 mm 7 mps 741 mmHg 58%
    13:00 0°C° 0 mm 7 mps 741 mmHg 60%
    14:00 +2°C° 0 mm 7 mps 741 mmHg 62%
    15:00 +2°C° 0 mm 7 mps 740 mmHg 69%
    16:00 +2°C° 0 mm 7 mps 740 mmHg 76%
    17:00 +2°C° 0 mm 7 mps 740 mmHg 84%
    18:00 +2°C° 0 mm 7 mps 740 mmHg 85%
    19:00 +2°C° 0 mm 7 mps 740 mmHg 85%
    20:00 +2°C° 0 mm 7 mps 739 mmHg 86%
    21:00 +2°C° 0.2 mm 7 mps 739 mmHg 88%
    22:00 +3°C° 0.2 mm 7 mps 739 mmHg 89%
    23:00 +3°C° 0.2 mm 7 mps 739 mmHg 91%

    Day after tomorrow, 8 December, Sunday

    Time Temperature Precipitation Wind Pressure Humidity
    00:00 +3°C° 0.2 mm 7 mps 740 mmHg 90%
    01:00 +3°C° 0.2 mm 7 mps 740 mmHg 90%
    02:00 +3°C° 0.2 mm 7 mps 740 mmHg 90%
    03:00 +3°C° 0.1 mm 6 mps 740 mmHg 90%
    04:00 +3°C° 0.1 mm 6 mps 740 mmHg 90%
    05:00 +2°C° 0.1 mm 5 mps 741 mmHg 89%
    06:00 +2°C° 0.9 mm 5 mps 741 mmHg 90%
    07:00 +2°C° 0.9 mm 5 mps 741 mmHg 91%
    08:00 +4°C° 0.9 mm 4 mps 742 mmHg 92%
    09:00 +3°C° 0.2 mm 5 mps 742 mmHg 89%
    10:00 +3°C° 0.2 mm 5 mps 742 mmHg 85%
    11:00 +3°C° 0.2 mm 5 mps 742 mmHg 81%
    12:00 +5°C° 0 mm 5 mps 742 mmHg 81%
    13:00 +5°C° 0 mm 5 mps 742 mmHg 82%
    14:00 +5°C° 0 mm 5 mps 742 mmHg 82%
    15:00 +5°C° 0 mm 5 mps 741 mmHg 80%
    16:00 +5°C° 0 mm 5 mps 741 mmHg 79%
    17:00 +5°C° 0 mm 5 mps 741 mmHg 78%
    18:00 +3°C° 0 mm 6 mps 740 mmHg 77%
    19:00 +3°C° 0 mm 6 mps 740 mmHg 77%
    20:00 +3°C° 0 mm 7 mps 740 mmHg 77%
    21:00 +3°C° 0 mm 7 mps 739 mmHg 76%
    22:00 +3°C° 0 mm 7 mps 738 mmHg 76%
    23:00 +3°C° 0 mm 7 mps 738 mmHg 76%

    9 December, Monday

    Time Temperature Precipitation Wind Pressure Humidity
    00:00 +3°C° 0.1 mm 7 mps 737 mmHg 78%
    01:00 +3°C° 0.1 mm 7 mps 737 mmHg 79%
    02:00 +3°C° 0.1 mm 7 mps 736 mmHg 81%
    03:00 +4°C° 0.2 mm 7 mps 736 mmHg 82%
    04:00 +4°C° 0.2 mm 7 mps 735 mmHg 82%
    05:00 +4°C° 0.2 mm 7 mps 735 mmHg 83%
    06:00 +4°C° 0.2 mm 7 mps 735 mmHg 83%
    07:00 +4°C° 0.2 mm 7 mps 735 mmHg 84%
    08:00 +4°C° 0.2 mm 6 mps 734 mmHg 84%
    09:00 +5°C° 0 mm 6 mps 735 mmHg 83%
    10:00 +5°C° 0 mm 6 mps 735 mmHg 82%
    11:00 +5°C° 0 mm 6 mps 735 mmHg 81%
    12:00 +5°C° 0.1 mm 6 mps 735 mmHg 79%
    13:00 +6°C° 0.1 mm 5 mps 735 mmHg 76%
    14:00 +7°C° 0.1 mm 5 mps 734 mmHg 73%
    15:00 +6°C° 0 mm 4 mps 734 mmHg 74%
    16:00 +6°C° 0 mm 4 mps 734 mmHg 74%
    17:00 +5°C° 0 mm 4 mps 734 mmHg 74%
    18:00 +5°C° 0 mm 4 mps 734 mmHg 76%
    19:00 +4°C° 0 mm 4 mps 734 mmHg 77%
    20:00 +4°C° 0 mm 4 mps 734 mmHg 79%
    21:00 +4°C° 0 mm 4 mps 734 mmHg 80%
    22:00 +3°C° 0 mm 4 mps 734 mmHg 82%
    23:00 +3°C° 0 mm 4 mps 734 mmHg 83%

    10 December, Tuesday

    Time Temperature Precipitation Wind Pressure Humidity
    00:00 +3°C° 0 mm 4 mps 734 mmHg 83%
    01:00 +2°C° 0 mm 5 mps 733 mmHg 82%
    02:00 +2°C° 0 mm 5 mps 733 mmHg 82%
    03:00 +2°C° 0.1 mm 5 mps 733 mmHg 85%
    04:00 +2°C° 0.1 mm 5 mps 733 mmHg 88%
    05:00 +2°C° 0.1 mm 5 mps 733 mmHg 91%
    06:00 +2°C° 0.1 mm 5 mps 733 mmHg 91%
    07:00 +2°C° 0.1 mm 5 mps 733 mmHg 90%
    08:00 +3°C° 0.1 mm 4 mps 733 mmHg 89%
    09:00 +3°C° 0.3 mm 4 mps 734 mmHg 89%
    10:00 +4°C° 0.3 mm 4 mps 735 mmHg 89%
    11:00 +4°C° 0.3 mm 4 mps 735 mmHg 88%
    12:00 +4°C° 0.2 mm 4 mps 736 mmHg 87%
    13:00 +3°C° 0.2 mm 5 mps 736 mmHg 86%
    14:00 +3°C° 0.2 mm 6 mps 736 mmHg 85%
    15:00 +3°C° 0.1 mm 6 mps 737 mmHg 87%
    16:00 +2°C° 0.1 mm 6 mps 738 mmHg 88%
    17:00 +2°C° 0.1 mm 6 mps 739 mmHg 90%
    18:00 +2°C° 0.2 mm 6 mps 740 mmHg 83%
    19:00 +2°C° 0.2 mm 6 mps 741 mmHg 76%
    20:00 0°C° 0.2 mm 7 mps 742 mmHg 69%
    21:00 +1°C° 0 mm 6 mps 743 mmHg 74%
    22:00 0°C° 0 mm 5 mps 744 mmHg 78%
    23:00 -1°C° 0 mm 4 mps 745 mmHg 82%

    11 December, Wednesday

    Time Temperature Precipitation Wind Pressure Humidity
    00:00 -1°C° 0 mm 3 mps 745 mmHg 85%
    01:00 -1°C° 0 mm 3 mps 745 mmHg 88%
    02:00 -2°C° 0 mm 2 mps 746 mmHg 91%
    03:00 -2°C° 0 mm 2 mps 745 mmHg 91%
    04:00 -2°C° 0 mm 2 mps 745 mmHg 91%
    05:00 -2°C° 0 mm 2 mps 745 mmHg 91%
    06:00 -2°C° 0 mm 3 mps 744 mmHg 89%
    07:00 -2°C° 0 mm 4 mps 744 mmHg 88%
    08:00 -2°C° 0 mm 5 mps 743 mmHg 86%
    09:00 -1°C° 0 mm 5 mps 743 mmHg 80%
    10:00 -2°C° 0 mm 6 mps 742 mmHg 73%
    11:00 -1°C° 0 mm 7 mps 741 mmHg 66%
    12:00 0°C° 0 mm 7 mps 741 mmHg 64%
    13:00 +1°C° 0 mm 6 mps 740 mmHg 62%
    14:00 +2°C° 0 mm 6 mps 740 mmHg 60%
    15:00 +1°C° 0.4 mm 6 mps 739 mmHg 68%
    16:00 +1°C° 0.4 mm 6 mps 739 mmHg 75%
    17:00 +1°C° 0.4 mm 6 mps 739 mmHg 83%
    18:00 +1°C° 0.3 mm 6 mps 739 mmHg 83%
    19:00 +1°C° 0.3 mm 6 mps 739 mmHg 82%
    20:00 +1°C° 0.3 mm 6 mps 738 mmHg 82%
    21:00 +1°C° 0.2 mm 6 mps 738 mmHg 82%
    22:00 +1°C° 0.2 mm 6 mps 738 mmHg 82%
    23:00 +2°C° 0.2 mm 7 mps 738 mmHg 82%
    Show more